When you browse on this site, cookies collect data to enhance your experience and personalize the content and advertising you see.
Visit our Privacy Policy to learn more. By continuing to use the site, you agree to this use of cookies and data.
  • In Hungary
  • List of Countries
  • For 7 days
  • Water Temperature
  • Satellite Maps
  • Weather Map
  • News
  • Weather Widgets
  • user-avatar
    Login

    Hourly Weather Vanadzor

    Today, 13 December, Thursday

    Time Temperature Precipitation Wind Pressure Humidity
    00:00 +2°C° 0.9 mm 3 mps 629 mmHg 88%
    01:00 +2°C° 0.6 mm 3 mps 629 mmHg 89%
    02:00 +1°C° 0.6 mm 3 mps 629 mmHg 90%
    03:00 +1°C° 0 mm 3 mps 629 mmHg 91%
    04:00 +1°C° 0.3 mm 3 mps 629 mmHg 91%
    05:00 0°C° 0.3 mm 3 mps 629 mmHg 91%
    06:00 +1°C° 0.3 mm 2 mps 629 mmHg 91%
    07:00 0°C° 0.1 mm 3 mps 630 mmHg 88%
    08:00 0°C° 0.1 mm 3 mps 630 mmHg 85%
    09:00 0°C° 0.1 mm 3 mps 631 mmHg 82%
    10:00 0°C° 0.1 mm 4 mps 631 mmHg 77%
    11:00 0°C° 0.1 mm 5 mps 632 mmHg 71%
    12:00 +1°C° 0.1 mm 5 mps 632 mmHg 66%
    13:00 0°C° 0 mm 4 mps 632 mmHg 65%
    14:00 0°C° 0 mm 4 mps 633 mmHg 64%
    15:00 0°C° 0 mm 3 mps 633 mmHg 63%
    16:00 -1°C° 0 mm 3 mps 633 mmHg 65%
    17:00 -2°C° 0 mm 2 mps 633 mmHg 68%
    18:00 -3°C° 0 mm 2 mps 634 mmHg 71%
    19:00 -4°C° 0 mm 2 mps 634 mmHg 71%
    20:00 -4°C° 0 mm 2 mps 634 mmHg 70%
    21:00 -4°C° 0 mm 2 mps 635 mmHg 70%
    22:00 -5°C° 0 mm 2 mps 635 mmHg 70%
    23:00 -5°C° 0 mm 2 mps 635 mmHg 70%

    Tomorrow, 14 December, Friday

    Time Temperature Precipitation Wind Pressure Humidity
    00:00 -5°C° 0 mm 2 mps 636 mmHg 70%
    01:00 -5°C° 0 mm 2 mps 636 mmHg 69%
    02:00 -6°C° 0 mm 2 mps 636 mmHg 69%
    03:00 -6°C° 0 mm 2 mps 636 mmHg 69%
    04:00 -6°C° 0 mm 2 mps 636 mmHg 68%
    05:00 -6°C° 0 mm 2 mps 636 mmHg 68%
    06:00 -6°C° 0 mm 2 mps 637 mmHg 68%
    07:00 -5°C° 0 mm 2 mps 637 mmHg 67%
    08:00 -5°C° 0 mm 2 mps 637 mmHg 66%
    09:00 -4°C° 0 mm 2 mps 637 mmHg 66%
    10:00 -3°C° 0.1 mm 2 mps 637 mmHg 65%
    11:00 -2°C° 0.1 mm 2 mps 637 mmHg 65%
    12:00 -1°C° 0.1 mm 2 mps 636 mmHg 65%
    13:00 -1°C° 0.2 mm 2 mps 636 mmHg 69%
    14:00 -1°C° 0.2 mm 2 mps 636 mmHg 73%
    15:00 -2°C° 0.2 mm 2 mps 636 mmHg 77%
    16:00 -2°C° 0.3 mm 2 mps 636 mmHg 80%
    17:00 0°C° 0.3 mm 1 mps 636 mmHg 84%
    18:00 -1°C° 0.3 mm 1 mps 637 mmHg 87%
    19:00 -1°C° 0.1 mm 1 mps 637 mmHg 87%
    20:00 -1°C° 0.1 mm 1 mps 637 mmHg 87%
    21:00 -1°C° 0.1 mm 1 mps 637 mmHg 87%
    22:00 -2°C° 0.1 mm 1 mps 637 mmHg 86%
    23:00 -2°C° 0.1 mm 1 mps 638 mmHg 85%

    Day after tomorrow, 15 December, Saturday

    Time Temperature Precipitation Wind Pressure Humidity
    00:00 -2°C° 0.1 mm 1 mps 638 mmHg 84%
    01:00 -4°C° 0 mm 2 mps 638 mmHg 83%
    02:00 -4°C° 0 mm 2 mps 638 mmHg 81%
    03:00 -4°C° 0 mm 2 mps 638 mmHg 80%
    04:00 -5°C° 0 mm 2 mps 638 mmHg 80%
    05:00 -5°C° 0 mm 2 mps 638 mmHg 79%
    06:00 -5°C° 0 mm 2 mps 638 mmHg 79%
    07:00 -4°C° 0 mm 2 mps 639 mmHg 77%
    08:00 -4°C° 0 mm 2 mps 639 mmHg 75%
    09:00 -3°C° 0 mm 2 mps 639 mmHg 74%
    10:00 -2°C° 0 mm 2 mps 639 mmHg 71%
    11:00 -1°C° 0 mm 2 mps 639 mmHg 68%
    12:00 +1°C° 0 mm 2 mps 639 mmHg 65%
    13:00 +1°C° 0 mm 2 mps 639 mmHg 65%
    14:00 +1°C° 0 mm 2 mps 639 mmHg 66%
    15:00 +2°C° 0 mm 1 mps 638 mmHg 66%
    16:00 +1°C° 0 mm 1 mps 638 mmHg 68%
    17:00 0°C° 0 mm 1 mps 638 mmHg 70%
    18:00 -2°C° 0 mm 1 mps 638 mmHg 72%
    19:00 -2°C° 0 mm 1 mps 638 mmHg 71%
    20:00 -2°C° 0 mm 1 mps 638 mmHg 69%
    21:00 -2°C° 0 mm 1 mps 639 mmHg 68%
    22:00 -2°C° 0 mm 1 mps 638 mmHg 68%
    23:00 -2°C° 0 mm 1 mps 638 mmHg 67%

    16 December, Sunday

    Time Temperature Precipitation Wind Pressure Humidity
    00:00 -2°C° 0 mm 1 mps 638 mmHg 67%
    01:00 -2°C° 0 mm 1 mps 638 mmHg 67%
    02:00 -2°C° 0 mm 1 mps 638 mmHg 66%
    03:00 -2°C° 0 mm 1 mps 638 mmHg 66%
    04:00 -2°C° 0 mm 1 mps 638 mmHg 66%
    05:00 -2°C° 0 mm 1 mps 638 mmHg 66%
    06:00 -2°C° 0 mm 1 mps 638 mmHg 66%
    07:00 -1°C° 0 mm 1 mps 638 mmHg 64%
    08:00 -1°C° 0 mm 1 mps 638 mmHg 63%
    09:00 0°C° 0 mm 1 mps 639 mmHg 62%
    10:00 +1°C° 0 mm 1 mps 638 mmHg 62%
    11:00 +2°C° 0 mm 1 mps 638 mmHg 61%
    12:00 +3°C° 0 mm 2 mps 638 mmHg 61%
    13:00 +2°C° 0 mm 2 mps 638 mmHg 62%
    14:00 +3°C° 0 mm 1 mps 638 mmHg 64%
    15:00 +3°C° 0 mm 1 mps 637 mmHg 66%
    16:00 +2°C° 0 mm 1 mps 637 mmHg 67%
    17:00 +1°C° 0 mm 1 mps 637 mmHg 69%
    18:00 0°C° 0 mm 1 mps 637 mmHg 71%
    19:00 0°C° 0 mm 1 mps 637 mmHg 71%
    20:00 -1°C° 0 mm 1 mps 637 mmHg 70%
    21:00 -1°C° 0 mm 1 mps 637 mmHg 69%
    22:00 -1°C° 0 mm 1 mps 637 mmHg 70%
    23:00 -1°C° 0 mm 1 mps 636 mmHg 71%

    17 December, Monday

    Time Temperature Precipitation Wind Pressure Humidity
    00:00 -1°C° 0 mm 1 mps 636 mmHg 71%
    01:00 -1°C° 0 mm 1 mps 636 mmHg 71%
    02:00 -1°C° 0 mm 1 mps 636 mmHg 71%
    03:00 -2°C° 0 mm 0 mps 636 mmHg 71%
    04:00 -2°C° 0 mm 0 mps 635 mmHg 71%
    05:00 -2°C° 0 mm 0 mps 635 mmHg 72%
    06:00 -3°C° 0 mm 0 mps 635 mmHg 72%
    07:00 -2°C° 0 mm 0 mps 635 mmHg 72%
    08:00 -2°C° 0 mm 0 mps 635 mmHg 71%
    09:00 0°C° 0 mm 1 mps 635 mmHg 71%
    10:00 +1°C° 0 mm 1 mps 635 mmHg 70%
    11:00 +2°C° 0 mm 1 mps 634 mmHg 69%
    12:00 +3°C° 0 mm 1 mps 634 mmHg 69%
    13:00 +2°C° 0 mm 1 mps 634 mmHg 71%
    14:00 +2°C° 0 mm 1 mps 633 mmHg 74%
    15:00 +2°C° 0 mm 1 mps 633 mmHg 77%
    16:00 +1°C° 0.1 mm 1 mps 633 mmHg 80%
    17:00 0°C° 0.1 mm 1 mps 633 mmHg 83%
    18:00 -1°C° 0.1 mm 1 mps 633 mmHg 87%
    19:00 -1°C° 0.3 mm 1 mps 633 mmHg 88%
    20:00 -1°C° 0.3 mm 1 mps 633 mmHg 88%
    21:00 -1°C° 0.3 mm 1 mps 634 mmHg 89%
    22:00 -1°C° 0.4 mm 1 mps 633 mmHg 90%
    23:00 -1°C° 0.4 mm 1 mps 633 mmHg 90%

    18 December, Tuesday

    Time Temperature Precipitation Wind Pressure Humidity
    00:00 0°C° 0.4 mm 1 mps 633 mmHg 91%
    01:00 -1°C° 0.2 mm 1 mps 633 mmHg 91%
    02:00 -1°C° 0.2 mm 1 mps 633 mmHg 91%
    03:00 -1°C° 0.2 mm 1 mps 633 mmHg 92%
    04:00 -1°C° 0.1 mm 1 mps 633 mmHg 91%
    05:00 -1°C° 0.1 mm 1 mps 633 mmHg 91%
    06:00 -1°C° 0.1 mm 1 mps 633 mmHg 91%
    07:00 -2°C° 0.1 mm 0 mps 633 mmHg 89%
    08:00 -1°C° 0.1 mm 0 mps 633 mmHg 87%
    09:00 -1°C° 0.1 mm 0 mps 634 mmHg 86%
    10:00 0°C° 0.1 mm 0 mps 634 mmHg 84%
    11:00 +1°C° 0.1 mm 1 mps 634 mmHg 83%
    12:00 +2°C° 0.1 mm 1 mps 634 mmHg 82%
    13:00 +2°C° 0.1 mm 1 mps 634 mmHg 83%
    14:00 +2°C° 0.1 mm 1 mps 634 mmHg 84%
    15:00 +2°C° 0.1 mm 1 mps 634 mmHg 85%
    16:00 +1°C° 0.1 mm 1 mps 634 mmHg 87%
    17:00 0°C° 0.1 mm 0 mps 634 mmHg 89%
    18:00 -1°C° 0.1 mm 0 mps 634 mmHg 91%
    19:00 -1°C° 0.1 mm 0 mps 634 mmHg 90%
    20:00 -1°C° 0.1 mm 0 mps 635 mmHg 89%
    21:00 0°C° 0.1 mm 1 mps 635 mmHg 88%
    22:00 -1°C° 0.1 mm 1 mps 635 mmHg 88%
    23:00 -1°C° 0.1 mm 1 mps 635 mmHg 87%
    Show more